Regional Weather Roundup
Issued by NWS Wakefield, VA

Home | Current Version | Previous Version | Text Only | Print | Product List | Glossary Off
Versions: 1 2 3 4 5 6 7 8 9 10 11 12 13 14 15 16 17 18 19 20 21 22 23 24 25 26 27 28 29 30 31 32 33 34 35 36 37 38 39 40 41 42 43 44 45 46 47 48 49

000
ASUS41 KAKQ 221410
RWRAKQ

REGIONAL WEATHER ROUNDUP
NATIONAL WEATHER SERVICE WAKEFIELD VA
1000 AM EDT MON SEP 22 2014

Note: "fair" indicates few or no clouds below 12,000 feet with no
significant weather and/or obstructions to visibility. * = Denotes
station may not report precipitation (e.g., rain,snow,etc.),
thunder or fog.

VAZ042-051-052>054-056-221500-
NORTHERN VIRGINIA

CITY           SKY/WX    TMP DP  RH WIND       PRES   REMARKS
WASH NATIONAL  MOSUNNY   70  48  45 NW18G24   30.00R
DULLES         MOSUNNY   65  47  52 NW21G28   30.02R
FORT BELVOIR   SUNNY     68  50  53 W18G26    30.00R
QUANTICO       MOSUNNY   69  49  48 NW17G26   30.02R
FREDERICKSBRG* SUNNY     69  51  53 NW8G16    30.01R
STAFFORD*      SUNNY     69  51  52 NW13G23   30.05R
WARRENTON      SUNNY     69  55  60 NW15G23   30.02R
CULPEPER*      MOSUNNY   68  50  52 NW10      30.03R
MANASSAS*      SUNNY     66  52  59 NW15G23   30.02R
LEESBURG*      CLOUDY    64  52  63 NW15      30.03R
WINCHESTER     CLOUDY    61  46  59 NW14      30.05R
FRONT ROYAL*   CLOUDY    61  45  55 W8        30.05R
LURAY*         CLOUDY    63  48  59 N8        30.07R
$$

VAZ048-049-060>072-079>083-221500-
CENTRAL AND SOUTH CENTRAL VIRGINIA...AND NORTH CENTRAL NORTH CAROLINA

CITY           SKY/WX    TMP DP  RH WIND       PRES   REMARKS
RICHMOND       MOSUNNY   74  46  36 NW10      30.01R
CHESTERFIELD*  SUNNY     72  45  37 NW15      30.04R
PETERSBURG*    SUNNY     70  47  43 NW12      30.03R
HANOVER        SUNNY     71  49  45 NW13      30.03R
TAPPAHANNOCK*  SUNNY     71  46  41 NW8       30.01R
CHARLOTTSVILLE MOSUNNY   67  48  50 NW7       30.03R
ORANGE*        SUNNY     68  48  49 NW10      30.04R
LOUISA*        SUNNY     70  48  46 NW10      30.01R
FARMVILLE*     SUNNY     70  46  43 NW7       30.02R
CREWE*         SUNNY     70  49  47 NW10G16   30.03R
FORT PICKETT*  SUNNY     69  50  51 NW8       30.03R
LUNENBURG*     SUNNY     67  53  59 NW5       30.04R
SOUTH HILL*    SUNNY     72  54  53 NW5       30.08R
LAWRENCEVILLE* SUNNY     69  53  57 NW7       30.03R
ROANOKE RAPIDS SUNNY     70  52  52 N9        30.03R
RALEIGH        MOSUNNY   69  52  54 N8        30.06R
$$

VAZ088>098-221500-
SOUTHEAST VIRGINIA

CITY           SKY/WX    TMP DP  RH WIND       PRES   REMARKS
NORFOLK        SUNNY     72  52  49 N10       29.99R
VIRGINIA BEACH MOSUNNY   75  55  49 N14G20    29.99R
NORFOLK NAVAL  MOSUNNY   75  52  44 N13       30.01R
WEST POINT*    SUNNY     73  49  43 NW6       30.02R
NEWPORT NEWS   SUNNY     76  51  41 N9        30.00R
LANGLEY AFB    SUNNY     72  52  49 NW9       29.99R
FORT EUSTIS    SUNNY     72  47  41 NW8       29.99R
WILLIAMSBURG*  SUNNY     73  54  49 NW6       30.01R
HR EXEC AP*    SUNNY     72  54  53 N5        30.02R
FRANKLIN*      SUNNY     72  52  49 NW6       30.01R
WAKEFIELD      SUNNY     72  53  51 VRB5      30.01R
$$

VAZ020-022-025-037-045-221500-
WEST CENTRAL AND SOUTHWEST VIRGINIA

CITY           SKY/WX    TMP DP  RH WIND       PRES   REMARKS
STAUNTON*      MOSUNNY   65  47  52 NW6       30.08R
HOT SPRINGS VA CLOUDY    49  36  61 W12       30.13R
LYNCHBURG      SUNNY     65  49  56 W6        30.08R
DANVILLE       SUNNY     68  50  52 N13       30.08R
SOUTH BOSTON*  NOT AVBL
MARTINSVILLE   SUNNY     66  49  52 N8        30.11R
ROANOKE        MOSUNNY   63  47  55 W14G21    30.11R
BLACKSBURG     MOSUNNY   59  52  77 W10G16    30.15R
DUBLIN*        PTSUNNY   60  48  64 NW7       30.16R
MARION*        PTSUNNY   56  46  70 NW7       30.19R
HILLSVILLE*    MOSUNNY   55  46  71 N12       30.15R
RICHLANDS*     CLOUDY    55  49  79 CALM      30.18R
WISE*          CLOUDY    54  45  71 CALM      30.20R
ABINGDON*      MOSUNNY   59  48  66 CALM      30.17R
$$

MDZ021>025-VAZ099-100-221500-
SOUTHERN MARYLAND AND THE DELMARVA PENINSULA

CITY           SKY/WX    TMP DP  RH WIND       PRES   REMARKS
PATUXENT RIVER MOSUNNY   70  50  49 NW17      29.99R
BAY BRIDGE APT   N/A     66  48  52 NW15      29.98R
LEONARDTOWN    SUNNY     66  50  55 W8G18     30.00R
DOVER          SUNNY     68  51  54 W10       29.93R
GEORGETOWN     SUNNY     69  50  50 VRB6G18   29.96R
EASTON         SUNNY     70  54  56 NW15G22   30.01R
CAMBRIDGE      SUNNY     72  50  46 NW13G18   29.97R
SALISBURY      SUNNY     73  52  47 NW9       29.97R
OCEAN CITY     SUNNY     71  51  49 NW14G23   29.96R
WALLOPS ISLAND MOSUNNY   72  53  51 N13       29.98R
ACCOMACK*      SUNNY     72  50  46 NW13G18   29.99R
$$

NCZ012>017-030>032-221500-
EASTERN NORTH CAROLINA

CITY           SKY/WX    TMP DP  RH WIND       PRES   REMARKS
ELIZABETH CITY PTSUNNY   75  58  55 NW9       29.98R
AHOSKIE*       SUNNY     70  54  56 N7        30.02R
EDENTON*       MOSUNNY   73  61  64 N8        29.99S
CURRITUCK*     MOSUNNY   74  55  52 N7        29.99R
KILL DEVIL HLS MOSUNNY   76  65  70 N8        29.97R
MANTEO         MOSUNNY   75  67  76 N8        29.99R
CAPE HATTERAS  SUNNY     75  69  81 NW8       29.97R
TARBORO*       PTSUNNY   72  55  54 NW7       30.03R
GOLDSBORO      PTSUNNY   72  61  67 N10       30.01R
WASHINGTON     MOSUNNY   70  61  72 NW7       30.01R
GREENVILLE     MOSUNNY   72  57  60 N5        30.03S
NEW BERN         N/A    N/A N/A N/A MISG      30.01R
WILMINGTON     SUNNY     79  63  57 N10       30.00R
$$

VAZ048-221500-
ELSEWHERE

CITY           SKY/WX    TMP DP  RH WIND       PRES   REMARKS
HARRISBURG PA  MOSUNNY   63  45  51 NW21G31   29.98R
BALTIMORE      MOSUNNY   67  47  48 W22G29    29.98R
ANNAPOLIS      SUNNY     67  50  54 NW13G23   29.98R
ANDREWS AFB    SUNNY     68  48  48 NW22      29.99R
WILMINGTON DE  SUNNY     67  49  52 W16G26    29.95R
PHILADELPHIA   MOSUNNY   67  49  52 W16G24    29.93R
WILDWOOD NJ*   SUNNY     68  48  49 NW12G20   29.94S
ATLANTIC CITY  SUNNY     68  52  56 W14G23    29.91R
HENDERSON NC   SUNNY     67  49  52 NW7       30.05R
GREENSBORO     MOSUNNY   66  51  58 NE9       30.08R
ROCKY MOUNT    PTSUNNY   72  52  49 N14G21    30.03R
FAYETTEVILLE   PTSUNNY   72  54  53 N8        30.04R
CHARLOTTE      MOSUNNY   69  53  56 VRB3      30.08R
$$

VAZ100-221500-
MARINE

STATION/POSITION TIME  TEMP    WIND        PRES    WAVE   SWELL
                       AIR SEA DIR/SP/G            HT/PER HT/PER
                 (UTC) (F)     (DEG/KT/KT) (MB)    (FT/S) (FT/S)
44066 TX TWR #4  1400   68 70  290/ 19/ 23 1010.9R   9/11   7/11
CAPE MAY NJ      1400   68 74  310/ 18/ 23 1013.2R
LEWES DE         1400   67 71  310/ 19/ 24 1013.6F
15NM E FENWICK I 1400   68 71              1013.6R   5/10
OCEAN-CITY-INLET 1400   68 71  340/ 12/ 17 1014.0R
WACHAPREAGUE VA  1400   72 73  340/  5/ 14 1015.2R
THOMAS POINT MD  1400   65 73  320/ 14/ 19 1016.2R
GOOSES REEF MD   1400   67     330/ 14/ 19 1015.6F
COVE POINT MD    1400   65     340/ 16/ 19 1015.3R
SOLOMONS ISLAND  1400      75                N/A
BISHOPS HEAD MD  1400   68 69  310/ 15/ 21 1014.9R
PINEY POINT MD   1400          350/ 19/ 22   N/A
POTOMAC MD       1400   69     340/ 17/ 21 1014.8R
CAMBRIDGE MD     1400   67 73  310/ 15/ 19 1014.7R
LEWISETTA VA     1400   69 74  320/ 14/ 19 1015.3R
RAPPAHANNOCK LGT 1400          330/ 16/ 18 1015.9R
STINGRAY PT      1400   70     330/ 12/ 14   N/A
YORK RVR RNG VA  1400   70     350/ 11/ 13 1015.3R
YORKTOWN VA      1400   70 76  320/  9/ 11 1015.5R
JAMESTOWN VA     1400   69     340/  6/  8   N/A
DOMINION TERM VA 1400   71     360/  9/ 12 1015.9R
KIPTOPEKE VA     1400      78  340/ 15/ 17   N/A
CHES BAY BRIDGE  1400   71 74  320/ 17/ 19 1015.1S
CAPE HENRY VA    1400   71     340/ 17/ 21 1014.2R
CHESAPEAKE LGHT  1300   72     340/ 18/ 19 1015.0R
WILLOUBY STN VA  1400   71     350/ 11/ 13 1014.5S
S CRANEY ISL VA  1400          340/  9/ 12 1015.5R
CAPE HENRY BUOY  1400      75                N/A     3/ 9   2/11
1ST LANDING BUOY 1400   72     340/ 16/ 19 1015.0S
CAPE CHARLES BUO 1400      74                N/A     4/10   3/10
OFFSHORE WE BUOY 1400      74                N/A     4/ 9   3/ 9
64NM E OF VA BCH 1400   74 76  340/ 16/ 17 1014.1R   5/ 9   3/ 9
DUCK PIER NC     1400   75 74  330/ 17/ 18 1014.1S
44100 DUCK FRF   1400      74                N/A     4/ 8   2/11
44056 DUCK FRF   1300                        N/A     3/ 9   2/11
OREGON INLET NC  1400   75 75  320/  9/ 12 1014.7R
DIAMOND SHLS NC  1400   77     300/ 10/ 12 1014.6R   6/ 6   5/ 6
CAPE LOOKOUT NC  1300   76     310/  7/  9 1014.8R
$$



USA.gov is the U.S. government's official web portal to all federal, state and local government web resources and services.